St. Cloud, MN

1:38 AM CDT on June 25, 2018 (GMT -0500)
Saint Cloud Regional

Weather History for KSTC - October, 2017

Change the Weather History Date:

Monday, October 23, 2017

  Actual Average Record
Temperature  
Mean Temperature 48 °F 43 °F  
Max Temperature 57 °F 53 °F 79 °F (1899)
Min Temperature 39 °F 33 °F 9 °F (1936)
Degree Days  
Heating Degree Days 17 22  
Month to date heating degree days 316 407  
Since 1 July heating degree days 495 693  
Cooling Degree Days 0 0  
Month to date cooling degree days 0 0  
Year to date cooling degree days 361 463  
Moisture  
Dew Point 36 °F    
Average Humidity 61    
Maximum Humidity 76    
Minimum Humidity 46    
Precipitation  
Precipitation 0.00 in 0.06 in 1.00 in (1995)
Month to date precipitation 4.84 1.99  
Year to date precipitation 28.70 25.03  
Snow  
Snow 0.00 in 0.10 in 4.90 in (1995)
Month to date snowfall 0.0 0.4  
Since 1 July snowfall 0.0 0.4  
Since 1 September snowfall 0.0 0.4  
Snow Depth 0.00 in    
Sea Level Pressure  
Sea Level Pressure 29.85 in    
Wind  
Wind Speed 14 mph (WNW)    
Max Wind Speed 28 mph    
Max Gust Speed 39 mph    
Visibility 10 miles    
Events      
T = Trace of Precipitation, MM = Missing Value Source: NWS Daily Summary

Daily Weather History Graph

Daily Weather History Graph

Search for Another Location

Airport or City:

Astronomy

Oct. 23, 2017 Rise Set
Actual Time 7:43 AM CDT 6:16 PM CDT
Civil Twilight 7:13 AM CDT 6:46 PM CDT
Nautical Twilight 6:38 AM CDT 7:21 PM CDT
Astronomical Twilight 6:04 AM CDT 7:55 PM CDT
Moon 11:18 AM CDT (10/23) 8:59 PM CDT (10/23)
Length of Visible Light 11h 33m
Length of Day
10h 32m
Waxing Crescent, 14% of the Moon is Illuminated
Oct 23
Waxing Crescent
Oct 27
First Quarter
Nov 4
Full
Nov 10
Last Quarter
Nov 18
New

Hourly Weather History & Observations

Time (CDT) Temp. Windchill Dew Point Humidity Pressure Visibility Wind Dir Wind Speed Gust Speed Precip Events Conditions
12:53 AM 53.1 °F - 36.0 °F 52% 29.82 in 10.0 mi South 10.4 mph - N/A   Overcast
1:53 AM 52.0 °F - 37.0 °F 57% 29.82 in 10.0 mi South 8.1 mph - N/A   Mostly Cloudy
2:53 AM 50.0 °F - 37.9 °F 63% 29.80 in 10.0 mi South 8.1 mph - N/A   Overcast
3:53 AM 51.1 °F - 37.9 °F 61% 29.78 in 10.0 mi South 8.1 mph - N/A   Overcast
4:53 AM 51.1 °F - 37.9 °F 61% 29.78 in 10.0 mi South 9.2 mph - N/A   Overcast
5:53 AM 48.0 °F - 39.0 °F 71% 29.77 in 10.0 mi SSW 9.2 mph - N/A   Clear
6:53 AM 46.0 °F 42.5 °F 39.0 °F 76% 29.78 in 10.0 mi SSW 6.9 mph - N/A   Scattered Clouds
7:53 AM 46.0 °F 43.1 °F 39.0 °F 76% 29.79 in 10.0 mi SW 5.8 mph - N/A   Clear
8:53 AM 52.0 °F - 43.0 °F 71% 29.79 in 10.0 mi WNW 15.0 mph - N/A   Clear
9:53 AM 53.1 °F - 41.0 °F 64% 29.78 in 10.0 mi WNW 16.1 mph - N/A   Clear
10:53 AM 55.9 °F - 41.0 °F 57% 29.78 in 10.0 mi WNW 18.4 mph - N/A   Clear
11:53 AM 55.9 °F - 39.9 °F 55% 29.81 in 10.0 mi WNW 18.4 mph 29.9 mph N/A   Scattered Clouds
12:53 PM 51.1 °F - 39.0 °F 63% 29.85 in 10.0 mi NW 17.3 mph - N/A   Overcast
1:53 PM 48.9 °F - 39.9 °F 71% 29.86 in 10.0 mi NW 16.1 mph - N/A   Overcast
2:53 PM 48.0 °F - 39.9 °F 74% 29.87 in 10.0 mi NW 23.0 mph 29.9 mph N/A   Overcast
3:51 PM 48.2 °F - 35.6 °F 62% 29.84 in 10.0 mi NW 20.7 mph 32.2 mph N/A   Overcast
3:53 PM 48.9 °F - 36.0 °F 61% 29.88 in 10.0 mi NW 19.6 mph 32.2 mph N/A   Overcast
4:53 PM 48.0 °F - 33.1 °F 56% 29.88 in 10.0 mi NW 19.6 mph 29.9 mph N/A   Overcast
5:53 PM 48.0 °F - 28.0 °F 46% 29.92 in 10.0 mi NW 12.7 mph 19.6 mph N/A   Overcast
6:53 PM 48.0 °F - 30.0 °F 50% 29.93 in 10.0 mi NNW 10.4 mph - N/A   Overcast
7:53 PM 46.0 °F 38.5 °F 28.0 °F 50% 29.93 in 10.0 mi NNW 19.6 mph 26.5 mph N/A   Clear
8:53 PM 44.1 °F 37.7 °F 28.9 °F 55% 29.94 in 10.0 mi NNW 12.7 mph - N/A   Clear
9:53 PM 43.0 °F 36.0 °F 30.0 °F 60% 29.95 in 10.0 mi NNW 13.8 mph 23.0 mph N/A   Clear
10:53 PM 41.0 °F 33.9 °F 30.0 °F 65% 29.95 in 10.0 mi NNW 12.7 mph 23.0 mph N/A   Clear
11:53 PM 39.0 °F 29.9 °F 28.9 °F 67% 29.94 in 10.0 mi NW 17.3 mph 25.3 mph N/A   Clear